User: anonymous   Login
Location: Unspecified
(0.0000°N, 0.0000°E)
Time: 11:36:10
(UTC+00:00)
Language:

MERIDIAN 1 - Orbit

View from above orbital plane
View from above orbital plane
View from above satellite
View from above satellite

Ground track
Ground track

The orbit data is extracted from the following two-line orbital elements,

1 29668U 06061A   18349.14418085 -.00000122  00000-0 -28917-3 0  9997
2 29668  63.9670  18.5525 7417440 234.1640  33.1889  2.00635884 87718
Epoch (UTC): 15 December 2018 03:27:37
Eccentricity: 0.7417440
inclination: 63.9670°
perigee height: 479 km
apogee height: 39871 km
right ascension of ascending node: 18.5525°
argument of perigee: 234.1640°
revolutions per day: 2.00635884
mean anomaly at epoch: 33.1889°
orbit number at epoch: 8771

The dashed part of the orbit path shows where the satellite is in the earth's shadow,  

DLR